SINOD-D 3

Last updated on Sat Aug 15 2026 00:03:44 GMT+0000 (Coordinated Universal Time)

1 40977U 15058P 26226.00131011 .00002045 00000+0 17748-3 0 9991 2 40977 64.7714 95.2299 0123420 35.8942 325.0384 14.94409712123391
UTC large
Height (km)
Speed (km/s)
/
Latitude / Longitude
Inclination (degrees)
Orbital Period (minutes)
Azimuth
Elevation
Range (km)
Doppler Factor

Next 0 passes for location: London (51.5072 / 0.1276)

No passes found over London.
SINOD-D 3